{"data":{"norad_id":81011,"intl_designator":"","name":"UNKNOWN","alt_names":[],"object_type":"UNKNOWN","status":"UNKNOWN","operator":null,"country":null,"launch_date":null,"launch_site_code":null,"launch_vehicle":null,"mission":null,"orbit_class":"UNKNOWN","rcs_meters":null,"size_class":null,"mass_kg":null,"dimensions":null,"purposes":[],"wikipedia_slug":null,"has_3d_model":false,"image_url":null,"decayed_at":null,"tle_current":{"epoch":"2026-09-19T01:05:16.147392Z","epoch_age_seconds":140797,"freshness":"FRESH","line1":"1 81011U          26262.04532578  .00001727  00000+0  94841-3 0  9998","line2":"2 81011  99.3606 287.3347 0134317  94.2318 267.4212 14.08647708 22964","mean_motion":14.08647708,"eccentricity":0.0134317,"inclination_deg":99.3606,"raan_deg":287.3347,"arg_perigee_deg":94.2318,"mean_anomaly_deg":267.4212,"bstar":0.00094841,"rev_number":2296,"period_min":102.22570141718,"perigee_km":766.72869286277,"apogee_km":961.27719503302,"semimajor_km":7242.1399439479,"source":"CELESTRAK","updated_at":"2026-09-20T09:00:32.381502Z"}}}